Wind_Speed
36 40 44 44 48 43 36 32 28 28 24 16 16 17 15 11 10 11 11 10 11 16 19 17 15 12 13 9 4 4 6 7 5 5 3 4 6 8 10 10 10 12 15
40 44 46 49 42 35 30 28 25 17 18 16 15 16 13 13 15 17 15 13 15 17 17 14 14 12 9 8 3 3 6 7 7 6 2 4 9 10 10 8 6 9 13
46 49 45 42 36 26 21 17 12 17 17 19 18 19 20 17 18 19 18 16 17 15 15 10 11 9 6 5 5 3 6 9 8 7 4 10 9 8 5 5 5 8 7
48 45 37 27 19 15 10 11 16 17 21 22 21 22 24 23 21 19 17 15 13 13 12 12 12 8 7 6 7 6 8 11 7 7 6 5 6 13 14 9 5 5 7
46 34 24 18 13 13 13 16 16 18 17 18 18 20 22 21 21 21 17 14 13 12 10 11 10 6 8 9 8 7 11 12 8 9 7 9 10 10 15 13 11 8 11
36 26 21 12 14 17 19 16 16 15 17 19 22 22 22 22 23 22 20 18 16 14 11 7 0 3 6 9 6 6 9 9 3 8 9 8 10 13 17 14 11 10 12
28 22 16 17 21 20 18 16 19 21 23 24 28 27 28 28 27 25 21 18 17 15 14 13 12 10 9 8 6 4 4 6 7 10 11 19 14 15 16 23 15 13 15
24 19 17 24 22 21 19 22 25 25 25 28 33 31 29 29 30 27 23 21 17 19 17 12 10 9 7 5 4 3 4 6 7 15 19 11 11 15 14 17 19 21 21
20 18 22 24 22 22 22 25 26 29 27 24 25 27 29 28 27 27 22 21 15 13 13 9 5 2 2 3 7 6 8 10 13 11 11 15 15 22 17 17 19 23 23
16 20 21 23 20 22 23 23 24 27 27 28 26 27 29 27 21 24 20 13 13 5 6 2 3 1 3 9 7 9 8 11 15 13 14 15 16 17 12 14 14 13 14
15 18 17 20 19 20 23 24 19 26 27 28 28 29 25 22 19 18 18 19 14 12 6 8 5 6 6 6 5 6 5 6 8 11 12 15 17 20 18 15 14 13 16
15 14 17 14 17 20 23 25 24 23 26 29 27 25 24 25 23 21 24 25 22 27 20 15 13 13 12 12 11 11 5 5 8 8 7 7 13 17 17 17 16 21 25
15 14 15 13 15 19 24 27 28 23 19 23 26 26 28 26 27 27 28 23 20 23 25 21 17 16 16 17 17 17 14 8 12 17 18 21 24 21 16 18 22 28 30
18 19 18 13 14 20 24 26 26 23 22 23 27 28 29 30 32 36 36 32 25 24 24 24 24 21 25 16 17 20 20 16 16 16 17 16 19 16 17 21 25 27 30
20 19 18 13 15 17 24 25 25 23 25 26 27 28 30 33 35 36 36 34 29 22 18 21 23 23 26 27 13 10 13 18 19 15 16 15 9 11 18 16 17 20 23
18 19 18 13 14 16 22 24 26 22 23 27 29 30 31 36 37 39 39 38 34 27 15 18 21 17 19 23 28 11 2 3 5 8 16 19 21 24 27 27 28 30 32
20 19 19 16 15 17 20 22 24 21 27 31 32 32 34 37 38 41 41 42 39 34 21 16 17 15 17 20 17 18 17 15 11 10 15 17 22 27 27 26 31 32 38
20 20 19 17 15 17 18 20 21 23 29 30 30 32 36 40 42 43 45 45 42 34 22 10 14 13 17 16 17 18 14 17 22 23 21 26 31 30 26 30 33 36 39
22 21 18 16 14 14 17 18 22 25 26 27 30 34 40 41 43 45 46 47 46 35 27 13 12 16 13 15 15 14 17 19 21 22 28 34 32 28 34 36 38 41 42
24 22 17 15 13 14 16 17 20 21 23 27 32 36 37 40 44 45 49 52 50 44 31 16 14 16 22 23 19 20 23 22 22 34 35 32 31 31 34 40 39 45 48
27 24 18 14 11 13 14 15 17 19 23 27 31 34 38 42 46 47 50 52 53 49 37 19 10 10 19 29 20 15 19 29 36 39 34 37 33 36 40 44 45 49 59
27 25 19 15 11 11 13 13 15 18 22 26 30 34 39 43 46 49 50 52 52 45 35 18 8 5 13 25 18 17 16 26 32 36 45 39 35 36 41 44 49 57 58
26 23 19 14 9 8 11 11 12 16 21 26 30 34 37 42 45 49 51 54 53 41 25 27 18 19 22 23 21 22 22 30 35 38 40 42 49 48 48 49 55 63 70
25 21 18 14 8 6 7 8 10 14 19 23 28 32 37 41 45 49 53 54 56 45 17 16 20 24 24 21 26 27 29 38 42 39 42 44 50 52 55 61 64 67 74
26 23 19 15 9 5 3 5 8 13 17 22 26 30 35 39 44 48 52 54 57 46 13 12 18 20 22 21 29 24 34 29 37 49 47 52 53 54 57 62 68 77 77
28 24 20 14 9 5 1 3 7 12 16 19 24 28 33 38 41 46 51 53 55 51 20 16 26 25 23 31 32 31 30 40 48 46 53 55 56 58 63 68 76 77 78
Wind_Direction
321 321 320 320 317 314 314 314 316 319 321 354 359 356 355 7 38 72 114 115 132 133 133 125 127 131 149 170 113 106 143 176 195 184 210 222 252 260 262 269 282 283 287
321 320 322 318 317 316 313 323 323 332 9 13 23 26 36 53 71 90 100 103 131 137 138 133 134 136 149 182 182 193 201 186 162 154 137 356 281 269 280 294 295 290 287
328 328 321 322 321 323 332 326 357 27 40 48 46 49 54 56 80 92 96 102 128 131 148 147 140 145 154 177 196 220 207 170 154 144 166 324 287 278 241 229 290 307 306
334 332 330 333 340 356 11 37 42 57 61 59 58 58 56 62 70 76 87 98 113 133 140 148 147 166 199 190 195 240 216 164 169 170 254 205 297 261 269 278 283 295 286
340 338 343 352 15 54 57 53 60 65 58 53 48 46 49 57 67 71 77 92 105 125 136 154 161 183 212 220 237 246 202 205 175 238 238 318 278 286 288 284 283 273 283
342 348 359 14 74 66 62 71 70 62 54 55 55 53 55 59 63 64 65 67 72 74 75 81 24 274 274 298 265 239 221 235 270 209 208 306 328 286 306 283 273 265 267
353 0 24 77 77 69 71 74 69 59 57 59 54 52 57 57 58 56 56 60 61 62 54 45 47 40 37 19 23 1 261 298 214 262 282 317 315 310 294 284 295 281 265
4 21 75 88 80 77 76 71 66 60 59 62 55 55 53 54 56 50 59 56 57 67 51 54 52 44 41 14 345 323 286 258 236 257 265 289 294 307 296 307 299 284 273
11 53 98 84 72 65 69 70 69 64 65 68 49 46 50 46 50 46 48 49 51 35 25 61 51 77 351 251 272 259 251 244 244 236 237 242 247 263 284 309 300 289 285
26 85 95 80 63 61 66 73 76 63 62 63 57 55 53 44 54 35 29 46 39 27 30 10 175 12 58 40 359 293 273 266 260 267 272 244 260 288 285 302 293 296 325
55 99 95 69 58 61 65 66 65 65 60 56 51 49 44 45 37 29 12 7 11 20 332 333 266 249 266 253 344 313 330 327 296 284 277 287 295 285 280 268 272 299 306
92 105 93 75 58 69 71 71 69 67 66 50 47 46 38 30 21 16 12 1 358 351 3 345 313 291 271 254 279 288 316 319 307 311 314 302 328 332 295 278 292 317 306
111 110 106 77 66 76 75 73 63 66 60 42 43 36 36 31 27 24 23 11 12 357 9 22 24 15 318 282 228 267 284 282 300 317 316 314 320 316 318 302 296 291 298
109 111 105 85 78 79 76 72 72 66 65 49 43 35 31 30 26 25 21 12 359 359 7 20 22 19 7 350 247 240 275 298 307 315 319 326 320 317 310 309 299 295 294
119 117 107 91 89 83 81 76 72 62 56 51 45 38 29 28 26 26 21 16 9 353 3 17 20 25 28 32 46 221 263 285 296 307 312 309 324 322 313 294 294 295 298
130 128 111 106 98 88 83 82 73 64 56 53 47 39 31 28 23 20 19 17 12 6 354 8 21 30 34 35 49 63 36 274 214 34 343 330 318 313 314 308 305 304 302
139 132 123 118 107 95 85 80 75 62 55 49 43 34 32 28 22 20 16 15 13 11 7 355 352 18 24 32 40 53 23 32 14 346 344 347 332 318 306 307 306 304 303
144 135 129 121 116 99 84 74 72 58 52 45 42 34 32 28 21 18 14 14 14 11 12 332 3 24 18 10 20 28 26 4 352 342 327 326 336 333 322 317 308 312 311
148 141 135 129 121 103 87 74 62 54 48 43 38 35 31 27 21 16 13 13 12 9 11 9 358 20 27 11 16 12 11 8 348 350 348 341 341 338 332 324 319 315 305
150 146 143 142 129 106 85 70 61 53 45 39 34 31 28 26 22 17 14 12 9 11 9 7 7 20 27 23 359 11 4 349 341 345 345 343 344 339 329 328 321 318 314
153 150 151 152 132 105 84 66 55 46 39 34 31 27 25 23 21 17 13 12 10 7 9 16 38 26 36 19 13 344 354 342 340 337 345 341 335 330 327 324 322 322 322
160 157 160 160 138 110 85 64 45 36 32 30 28 24 22 22 18 17 12 14 11 3 12 31 65 41 15 2 3 353 341 347 341 337 332 333 339 327 324 324 326 323 320
166 163 166 160 144 108 82 62 39 26 25 23 22 21 20 19 17 15 12 11 9 7 37 51 45 32 14 360 351 352 343 335 334 335 329 328 329 331 324 321 325 324 322
171 169 172 166 152 116 80 59 33 22 19 19 18 17 17 16 15 15 13 10 11 14 35 42 33 14 11 4 2 341 338 336 325 326 332 334 337 333 326 328 328 329 327
180 179 177 170 166 145 90 44 23 17 15 14 12 12 13 15 14 13 15 12 16 13 38 14 5 356 349 353 348 343 333 325 319 322 338 340 337 332 331 334 334 334 332
188 186 183 180 176 184 221 5 5 9 6 6 8 9 9 12 10 13 13 13 15 13 3 356 354 342 345 343 340 334 312 316 320 339 340 340 338 336 336 336 338 335 329
Height
11004 11000 10995 10990 10983 10976 10972 10967 10963 10959 10955 10953 10949 10945 10938 10932 10928 10924 10925 10925 10925 10927 10928 10931 10935 10936 10936 10936 10936 10936 10936 10935 10936 10937 10936 10935 10936 10936 10935 10933 10932 10933 10932
10999 10995 10990 10981 10975 10969 10966 10963 10959 10957 10954 10951 10948 10945 10940 10934 10930 10928 10928 10927 10927 10929 10931 10933 10935 10936 10936 10937 10936 10936 10934 10935 10935 10935 10935 10936 10934 10933 10933 10933 10933 10932 10931
10994 10989 10982 10975 10969 10965 10962 10960 10960 10957 10956 10953 10950 10947 10943 10938 10935 10933 10932 10931 10931 10931 10933 10935 10935 10936 10936 10936 10935 10934 10933 10935 10936 10935 10935 10935 10935 10934 10932 10931 10932 10930 10930
10990 10982 10976 10971 10967 10964 10963 10963 10961 10960 10957 10955 10953 10951 10947 10943 10941 10939 10936 10934 10934 10935 10935 10935 10936 10935 10934 10934 10933 10932 10934 10937 10938 10937 10935 10933 10933 10934 10933 10931 10930 10929 10928
10986 10978 10975 10971 10970 10966 10966 10964 10964 10962 10960 10958 10956 10954 10951 10948 10945 10943 10941 10939 10938 10938 10938 10938 10938 10936 10935 10935 10935 10935 10936 10937 10939 10936 10936 10934 10934 10934 10931 10930 10928 10927 10927
10984 10978 10976 10974 10972 10972 10968 10968 10966 10964 10963 10961 10959 10957 10954 10952 10950 10949 10947 10947 10946 10945 10944 10942 10942 10940 10938 10938 10937 10937 10937 10937 10937 10937 10935 10934 10933 10932 10930 10928 10926 10925 10925
10984 10980 10978 10977 10976 10975 10973 10972 10969 10968 10967 10966 10964 10962 10960 10958 10956 10954 10953 10952 10951 10949 10947 10946 10944 10942 10940 10938 10938 10939 10938 10938 10937 10937 10935 10933 10931 10930 10928 10927 10925 10924 10923
10984 10982 10983 10982 10981 10978 10977 10975 10974 10973 10972 10970 10969 10967 10964 10962 10961 10959 10957 10955 10955 10953 10951 10949 10946 10943 10942 10938 10935 10935 10936 10936 10936 10934 10933 10933 10932 10931 10928 10926 10924 10924 10921
10987 10985 10986 10987 10985 10983 10982 10981 10979 10978 10976 10974 10972 10971 10969 10967 10964 10962 10959 10956 10954 10953 10951 10948 10948 10945 10942 10937 10933 10932 10932 10932 10931 10931 10930 10930 10929 10927 10925 10924 10923 10921 10918
10991 10989 10990 10991 10988 10987 10987 10985 10984 10982 10980 10979 10977 10975 10972 10968 10966 10964 10962 10958 10955 10954 10952 10949 10947 10946 10942 10938 10934 10931 10931 10930 10929 10927 10926 10926 10924 10923 10921 10921 10921 10918 10912
10992 10993 10993 10994 10993 10992 10990 10989 10988 10987 10984 10983 10981 10978 10974 10971 10968 10964 10962 10958 10956 10955 10950 10947 10945 10943 10942 10937 10932 10929 10928 10926 10925 10926 10926 10925 10923 10920 10918 10916 10914 10910 10908
10995 10997 10997 10998 10998 10996 10995 10995 10992 10990 10988 10986 10985 10981 10977 10973 10969 10965 10961 10958 10954 10952 10949 10943 10940 10938 10937 10936 10933 10927 10926 10925 10924 10924 10924 10923 10921 10917 10913 10914 10910 10907 10907
10999 11000 11001 11002 11003 11000 11000 10999 10996 10994 10992 10990 10988 10983 10979 10975 10972 10967 10962 10958 10953 10950 10944 10940 10936 10933 10932 10931 10931 10926 10924 10925 10924 10922 10922 10920 10917 10914 10912 10911 10908 10906 10904
11002 11004 11005 11006 11006 11004 11004 11003 11001 11000 10997 10994 10989 10984 10981 10979 10973 10967 10962 10956 10952 10949 10944 10939 10935 10932 10928 10923 10924 10927 10923 10924 10925 10924 10922 10919 10916 10914 10912 10909 10906 10904 10900
11006 11008 11008 11009 11010 11008 11008 11007 11004 11002 10999 10996 10993 10988 10983 10979 10974 10969 10964 10959 10953 10947 10944 10940 10935 10929 10929 10921 10917 10922 10926 10925 10925 10924 10922 10919 10917 10914 10911 10908 10905 10901 10896
11010 11011 11011 11012 11013 11013 11012 11011 11007 11006 11003 10999 10996 10991 10986 10980 10975 10970 10966 10961 10953 10946 10942 10938 10934 10933 10933 10928 10922 10923 10925 10923 10924 10926 10924 10922 10918 10914 10908 10903 10898 10893 10887
11012 11013 11014 11016 11017 11016 11015 11014 11010 11009 11004 11000 10995 10994 10990 10986 10979 10973 10967 10960 10950 10942 10938 10936 10938 10938 10933 10930 10927 10926 10926 10925 10925 10923 10919 10916 10913 10907 10901 10896 10890 10884 10880
11014 11015 11017 11019 11020 11019 11017 11015 11014 11010 11004 11003 11003 10999 10994 10987 10980 10974 10967 10959 10950 10944 10940 10940 10939 10936 10934 10931 10927 10925 10924 10924 10920 10916 10912 10907 10902 10897 10892 10887 10881 10876 10870
11015 11016 11018 11021 11021 11020 11020 11018 11013 11009 11008 11009 11006 11000 10992 10989 10984 10977 10969 10960 10953 10946 10940 10936 10934 10933 10931 10928 10924 10922 10921 10920 10916 10912 10908 10902 10895 10887 10881 10877 10872 10866 10859
11015 11017 11019 11022 11022 11021 11020 11020 11017 11014 11012 11009 11005 11000 10997 10994 10987 10978 10968 10960 10952 10944 10937 10933 10933 10934 10932 10928 10925 10924 10922 10919 10915 10909 10903 10898 10892 10885 10877 10868 10861 10853 10847
11014 11017 11020 11022 11022 11021 11021 11020 11019 11016 11013 11011 11008 11004 10998 10992 10985 10977 10969 10962 10952 10944 10939 10935 10935 10934 10931 10930 10925 10923 10920 10914 10907 10902 10897 10892 10886 10878 10870 10862 10854 10843 10834
11013 11016 11019 11021 11022 11022 11022 11022 11020 11017 11014 11012 11008 11004 10999 10993 10986 10979 10972 10964 10955 10946 10941 10938 10936 10935 10933 10930 10926 10920 10915 10913 10908 10900 10896 10890 10883 10874 10866 10856 10847 10832 10818
11013 11016 11019 11021 11022 11022 11023 11022 11021 11018 11015 11012 11009 11005 11000 10994 10988 10981 10974 10965 10958 10950 10944 10941 10938 10936 10933 10927 10923 10918 10912 10907 10903 10898 10894 10885 10875 10866 10854 10845 10834 10821 10807
11014 11016 11019 11020 11021 11022 11023 11023 11022 11019 11016 11014 11010 11006 11001 10995 10989 10982 10974 10967 10960 10950 10944 10940 10936 10932 10926 10922 10919 10913 10907 10899 10890 10884 10882 10876 10867 10851 10840 10831 10818 10804 10786
11014 11016 11018 11018 11020 11021 11022 11023 11022 11020 11018 11015 11011 11008 11003 10997 10991 10985 10977 10971 10962 10951 10944 10939 10936 10931 10926 10922 10915 10908 10903 10897 10890 10881 10873 10866 10859 10846 10833 10820 10804 10786 10767
11013 11016 11017 11018 11019 11021 11022 11022 11022 11021 11019 11016 11014 11010 11005 10999 10994 10987 10979 10974 10962 10952 10943 10939 10933 10927 10923 10917 10910 10903 10898 10891 10883 10871 10862 10855 10846 10833 10818 10805 10789 10772 10755